Regional Weather Roundup
Issued by NWS

Home | Current Version | Previous Version | Text Only | Print | Product List | Glossary On
Versions: 1 2 3 4 5 6 7 8 9 10 11 12 13 14 15 16 17 18 19 20 21 22 23 24 25 26 27 28 29 30 31 32 33 34 35 36 37 38 39 40 41 42 43 44 45 46 47 48 49 50
000
ASUS45 KBOI 181410
RWRID

IDAHO REGIONAL WEATHER ROUNDUP
NATIONAL WEATHER SERVICE BOISE ID
700 AM MST THU JAN 18 2018

NOTE: "FAIR" INDICATES FEW OR NO CLOUDS BELOW 12000 FEET
WITH NO SIGNIFICANT WEATHER AND/OR OBSTRUCTIONS TO VISIBILITY

IDZ012-014-181500-
SOUTHWEST IDAHO


CITY           SKY/WX    TMP DP  RH WIND       PRES   REMARKS
BOISE          CLOUDY    48  34  58 SE18G28   29.94F
CALDWELL       CLOUDY    44  34  67 SE20G26   29.94F
MOUNTAIN HOME  CLOUDY    41  39  95 SE21      30.00F
$$

IDZ016-017-181500-
SOUTHCENTRAL IDAHO


CITY           SKY/WX    TMP DP  RH WIND       PRES   REMARKS
BURLEY         MOCLDY    36  29  75 VRB7      30.07F WCI  30
JEROME         CLOUDY    34  28  79 NE23      30.07F WCI  22
TWIN FALLS     CLOUDY    33  32  96 SE6       30.05F WCI  28
$$

IDZ019>023-181500-
SOUTHEAST IDAHO


CITY           SKY/WX    TMP DP  RH WIND       PRES   REMARKS
IDAHO FALLS    PTCLDY    27  26  96 N3        30.17F
POCATELLO      PTCLDY    27  25  92 NE3       30.14F
REXBURG        PTCLDY    24  23  96 E3        30.16F
$$

IDZ006-010-011-018-031-032-181500-
CENTRAL IDAHO MOUNTAINS


CITY           SKY/WX    TMP DP  RH WIND       PRES   REMARKS
MCCALL         CLOUDY    33  31  92 NW6       29.92F WCI  28
HAILEY         PTCLDY    30  25  80 NW6       30.14F WCI  24
STANLEY          N/A     18  15  88 CALM      30.03F
SALMON         MOCLDY    20  19  96 SE3       30.04F
CHALLIS        CLOUDY    21  17  84 E3        30.05F
$$

IDZ002-004-006-007-026-181500-
NORTHERN IDAHO


CITY           SKY/WX    TMP DP  RH WIND       PRES   REMARKS
LEWISTON       LGT RAIN  44  42  93 SE8       29.88R FOG
LOWELL           N/A     36  34  92 NW3       29.89F
COEUR D`ALENE  LGT RAIN  39  38  96 S9        29.80S WCI  33
MULLAN PASS    SNOW      31  31 100 VRB5      29.80R VSB 1/2 WCI  26
$$



USA.gov is the U.S. government's official web portal to all federal, state and local government web resources and services.